Weather History for PADQ - February, 2012

Change the Weather History Date:

Tuesday, February 28, 2012

  Actual Average Record
Temperature  
Mean Temperature 18 °F 32 °F  
Max Temperature 21 °F 37 °F 51 °F (1962)
Min Temperature 14 °F 27 °F -4 °F (1986)
Degree Days  
Heating Degree Days 47 33  
Month to date heating degree days 911 959  
Since 1 July heating degree days 6279 5873  
Cooling Degree Days 0    
Month to date cooling degree days 0  
Year to date cooling degree days 0  
Moisture  
Dew Point 5 °F    
Average Humidity 0    
Maximum Humidity 0    
Minimum Humidity 0    
Precipitation  
Precipitation 0.00 in 0.21 in 2.10 in (1981)
Month to date precipitation 6.60 6.14  
Year to date precipitation 11.32 14.43  
Snow  
Snow 0.00 in 0.50 in 5.00 in (1984)
Month to date snowfall 26.3 15.1  
Since 1 July snowfall 116.2 49.4  
Snow Depth 3.00 in    
Sea Level Pressure  
Sea Level Pressure 29.60 in    
Wind  
Wind Speed 18 mph (WNW)    
Max Wind Speed 35 mph    
Max Gust Speed 48 mph    
Visibility 10 miles    
Events      
T = Trace of Precipitation, MM = Missing Value Source: NWS Daily Summary

Daily Weather History Graph

Daily Weather History Graph

Search for Another Location

Airport or City:

Trip Planner

Search our weather history database for the weather conditions in past years. The results will help you decide how hot, cold, wet, or windy it might be!

Date:

Astronomy

Feb. 28, 2012 Rise Set
Actual Time 8:07 AM AKST 6:38 PM AKST
Civil Twilight 7:28 AM AKST 7:17 PM AKST
Nautical Twilight 6:43 AM AKST 8:02 PM AKST
Astronomical Twilight 5:57 AM AKST 8:48 PM AKST
Moon 9:47 AM AKST (2/28) 2:13 AM AKST (2/28)
Length of Visible Light 11h 49m
Length of Day
10h 30m
Waxing Crescent, 39% of the Moon is Illuminated
Feb 28
Waxing Crescent
Feb 29
First Quarter
Mar 8
Full
Mar 14
Last Quarter
Mar 22
New

Hourly Weather History & Observations

Time (AKST) Temp. Windchill Dew Point Humidity Pressure Visibility Wind Dir Wind Speed Gust Speed Precip Events Conditions
12:53 AM 19.9 °F 1.5 °F 7.0 °F 57% 29.49 in 10.0 mi WNW 28.8 mph 41.4 mph N/A   Mostly Cloudy
1:53 AM 19.9 °F 10.1 °F 6.1 °F 55% 29.52 in 10.0 mi West 8.1 mph 42.6 mph N/A   Scattered Clouds
2:20 AM 19.4 °F 7.9 °F 5.0 °F 54% 29.53 in 10.0 mi SSE 10.4 mph 35.7 mph N/A   Mostly Cloudy
2:53 AM 18.0 °F -0.5 °F 3.9 °F 54% 29.53 in 10.0 mi West 26.5 mph 39.1 mph N/A   Scattered Clouds
3:53 AM 18.0 °F 3.1 °F 3.9 °F 54% 29.52 in 10.0 mi WNW 16.1 mph 31.1 mph N/A   Clear
4:53 AM 17.1 °F 0.1 °F 5.0 °F 59% 29.55 in 10.0 mi WNW 20.7 mph 32.2 mph N/A   Clear
5:53 AM 16.0 °F -1.7 °F 3.9 °F 59% 29.54 in 10.0 mi NW 21.9 mph 31.1 mph N/A   Clear
6:53 AM 15.1 °F -2.5 °F 3.0 °F 59% 29.57 in 10.0 mi NW 20.7 mph 34.5 mph N/A   Partly Cloudy
7:53 AM 15.1 °F -3.3 °F 1.9 °F 56% 29.57 in 10.0 mi WNW 23.0 mph 36.8 mph N/A   Partly Cloudy
8:53 AM 14.0 °F -3.9 °F 1.0 °F 56% 29.59 in 10.0 mi WNW 20.7 mph 32.2 mph N/A   Partly Cloudy
9:53 AM 15.1 °F -4.0 °F 1.9 °F 56% 29.59 in 10.0 mi WNW 25.3 mph 35.7 mph N/A   Partly Cloudy
10:53 AM 16.0 °F -1.7 °F 3.0 °F 57% 29.62 in 10.0 mi WNW 21.9 mph - N/A   Partly Cloudy
11:53 AM 17.1 °F 0.1 °F 3.9 °F 56% 29.63 in 10.0 mi West 20.7 mph 29.9 mph N/A   Partly Cloudy
12:53 PM 18.0 °F 1.3 °F 5.0 °F 57% 29.64 in 10.0 mi WNW 20.7 mph 26.5 mph N/A   Scattered Clouds
1:53 PM 17.1 °F 0.6 °F 3.9 °F 56% 29.64 in 10.0 mi WNW 19.6 mph 26.5 mph N/A   Scattered Clouds
2:53 PM 18.0 °F 2.6 °F 5.0 °F 57% 29.65 in 10.0 mi WNW 17.3 mph 23.0 mph N/A   Mostly Cloudy
3:53 PM 18.0 °F 4.2 °F 5.0 °F 57% 29.65 in 10.0 mi WNW 13.8 mph 20.7 mph N/A   Mostly Cloudy
4:53 PM 19.0 °F 6.8 °F 6.1 °F 57% 29.66 in 10.0 mi NW 11.5 mph 17.3 mph N/A   Mostly Cloudy
5:53 PM 19.0 °F 5.6 °F 7.0 °F 59% 29.64 in 10.0 mi WNW 13.8 mph - N/A   Mostly Cloudy
6:53 PM 19.0 °F 6.1 °F 7.0 °F 59% 29.65 in 10.0 mi WNW 12.7 mph 18.4 mph N/A   Mostly Cloudy
7:53 PM 19.0 °F 6.1 °F 7.0 °F 59% 29.66 in 10.0 mi WNW 12.7 mph - N/A   Mostly Cloudy
8:53 PM 18.0 °F 5.4 °F 6.1 °F 60% 29.65 in 10.0 mi NW 11.5 mph - N/A   Scattered Clouds
9:53 PM 18.0 °F 4.8 °F 3.9 °F 54% 29.65 in 10.0 mi NW 12.7 mph - N/A   Scattered Clouds
10:53 PM 17.1 °F 5.8 °F 5.0 °F 59% 29.65 in 10.0 mi NW 9.2 mph - N/A   Scattered Clouds
11:53 PM 17.1 °F 5.0 °F 6.1 °F 62% 29.67 in 10.0 mi NW 10.4 mph - N/A   Scattered Clouds